﻿測定場所 (Monitoring sites),日付 (Measurement date),時間 (Measurement time),線量率 最大値 (max) μGy/h,線量率 最小値 (min) μGy/h,線量率 平均値 (average) μGy/h,
調布 (Chofu),2023-04-02,23:01～24:00,0.0292,0.0251,0.0275,
調布 (Chofu),2023-04-02,22:01～23:00,0.0297,0.0252,0.0275,
調布 (Chofu),2023-04-02,21:01～22:00,0.0303,0.0251,0.0274,
調布 (Chofu),2023-04-02,20:01～21:00,0.0298,0.0257,0.0275,
調布 (Chofu),2023-04-02,19:01～20:00,0.0297,0.0253,0.0277,
調布 (Chofu),2023-04-02,18:01～19:00,0.0294,0.0258,0.0276,
調布 (Chofu),2023-04-02,17:01～18:00,0.0297,0.0256,0.0275,
調布 (Chofu),2023-04-02,16:01～17:00,0.0292,0.0252,0.0273,
調布 (Chofu),2023-04-02,15:01～16:00,0.0299,0.0250,0.0275,
調布 (Chofu),2023-04-02,14:01～15:00,0.0304,0.0259,0.0279,
調布 (Chofu),2023-04-02,13:01～14:00,0.0295,0.0249,0.0274,
調布 (Chofu),2023-04-02,12:01～13:00,0.0294,0.0252,0.0276,
調布 (Chofu),2023-04-02,11:01～12:00,0.0294,0.0252,0.0277,
調布 (Chofu),2023-04-02,10:01～11:00,0.0303,0.0257,0.0279,
調布 (Chofu),2023-04-02,09:01～10:00,0.0294,0.0255,0.0279,
調布 (Chofu),2023-04-02,08:01～09:00,0.0296,0.0263,0.0278,
調布 (Chofu),2023-04-02,07:01～08:00,0.0300,0.0260,0.0277,
調布 (Chofu),2023-04-02,06:01～07:00,0.0298,0.0253,0.0277,
調布 (Chofu),2023-04-02,05:01～06:00,0.0306,0.0255,0.0276,
調布 (Chofu),2023-04-02,04:01～05:00,0.0290,0.0249,0.0275,
調布 (Chofu),2023-04-02,03:01～04:00,0.0299,0.0265,0.0282,
調布 (Chofu),2023-04-02,02:01～03:00,0.0347,0.0279,0.0308,
調布 (Chofu),2023-04-02,01:01～02:00,0.0408,0.0308,0.0368,
調布 (Chofu),2023-04-02,00:01～01:00,0.0407,0.0343,0.0373,
調布 (Chofu),2023-04-01,23:01～24:00,0.0362,0.0273,0.0310,
調布 (Chofu),2023-04-01,22:01～23:00,0.0296,0.0258,0.0277,
調布 (Chofu),2023-04-01,21:01～22:00,0.0295,0.0259,0.0276,
調布 (Chofu),2023-04-01,20:01～21:00,0.0300,0.0258,0.0277,
調布 (Chofu),2023-04-01,19:01～20:00,0.0296,0.0258,0.0276,
調布 (Chofu),2023-04-01,18:01～19:00,0.0301,0.0251,0.0273,
調布 (Chofu),2023-04-01,17:01～18:00,0.0301,0.0254,0.0275,
調布 (Chofu),2023-04-01,16:01～17:00,0.0299,0.0262,0.0278,
調布 (Chofu),2023-04-01,15:01～16:00,0.0297,0.0247,0.0275,
調布 (Chofu),2023-04-01,14:01～15:00,0.0296,0.0256,0.0277,
調布 (Chofu),2023-04-01,13:01～14:00,0.0293,0.0258,0.0278,
調布 (Chofu),2023-04-01,12:01～13:00,0.0297,0.0252,0.0277,
調布 (Chofu),2023-04-01,11:01～12:00,0.0299,0.0257,0.0279,
調布 (Chofu),2023-04-01,10:01～11:00,0.0300,0.0257,0.0282,
調布 (Chofu),2023-04-01,09:01～10:00,0.0306,0.0263,0.0285,
調布 (Chofu),2023-04-01,08:01～09:00,0.0307,0.0275,0.0289,
調布 (Chofu),2023-04-01,07:01～08:00,0.0309,0.0263,0.0289,
調布 (Chofu),2023-04-01,06:01～07:00,0.0313,0.0263,0.0289,
調布 (Chofu),2023-04-01,05:01～06:00,0.0318,0.0273,0.0293,
調布 (Chofu),2023-04-01,04:01～05:00,0.0314,0.0273,0.0292,
調布 (Chofu),2023-04-01,03:01～04:00,0.0316,0.0266,0.0290,
調布 (Chofu),2023-04-01,02:01～03:00,0.0311,0.0267,0.0287,
調布 (Chofu),2023-04-01,01:01～02:00,0.0303,0.0266,0.0285,
調布 (Chofu),2023-04-01,00:01～01:00,0.0299,0.0266,0.0283,
調布 (Chofu),2023-03-31,23:01～24:00,0.0295,0.0263,0.0278,
調布 (Chofu),2023-03-31,22:01～23:00,0.0300,0.0257,0.0275,
調布 (Chofu),2023-03-31,21:01～22:00,0.0301,0.0252,0.0276,
調布 (Chofu),2023-03-31,20:01～21:00,0.0290,0.0249,0.0274,
調布 (Chofu),2023-03-31,19:01～20:00,0.0288,0.0246,0.0272,
調布 (Chofu),2023-03-31,18:01～19:00,0.0287,0.0256,0.0272,
調布 (Chofu),2023-03-31,17:01～18:00,0.0295,0.0255,0.0272,
調布 (Chofu),2023-03-31,16:01～17:00,0.0290,0.0255,0.0272,
調布 (Chofu),2023-03-31,15:01～16:00,0.0300,0.0252,0.0272,
調布 (Chofu),2023-03-31,14:01～15:00,0.0283,0.0254,0.0271,
調布 (Chofu),2023-03-31,13:01～14:00,0.0295,0.0251,0.0271,
調布 (Chofu),2023-03-31,12:01～13:00,0.0288,0.0249,0.0270,
調布 (Chofu),2023-03-31,11:01～12:00,0.0293,0.0254,0.0272,
調布 (Chofu),2023-03-31,10:01～11:00,0.0299,0.0253,0.0276,
調布 (Chofu),2023-03-31,09:01～10:00,0.0301,0.0258,0.0281,
調布 (Chofu),2023-03-31,08:01～09:00,0.0308,0.0268,0.0285,
調布 (Chofu),2023-03-31,07:01～08:00,0.0301,0.0265,0.0283,
調布 (Chofu),2023-03-31,06:01～07:00,0.0304,0.0260,0.0285,
調布 (Chofu),2023-03-31,05:01～06:00,0.0305,0.0260,0.0283,
調布 (Chofu),2023-03-31,04:01～05:00,0.0298,0.0262,0.0280,
調布 (Chofu),2023-03-31,03:01～04:00,0.0297,0.0266,0.0279,
調布 (Chofu),2023-03-31,02:01～03:00,0.0292,0.0254,0.0277,
調布 (Chofu),2023-03-31,01:01～02:00,0.0295,0.0254,0.0274,
調布 (Chofu),2023-03-31,00:01～01:00,0.0290,0.0254,0.0272,
調布 (Chofu),2023-03-30,23:01～24:00,0.0287,0.0254,0.0273,
調布 (Chofu),2023-03-30,22:01～23:00,0.0297,0.0252,0.0271,
調布 (Chofu),2023-03-30,21:01～22:00,0.0297,0.0254,0.0273,
調布 (Chofu),2023-03-30,20:01～21:00,0.0290,0.0252,0.0271,
調布 (Chofu),2023-03-30,19:01～20:00,0.0290,0.0252,0.0270,
調布 (Chofu),2023-03-30,18:01～19:00,0.0298,0.0252,0.0272,
調布 (Chofu),2023-03-30,17:01～18:00,0.0306,0.0249,0.0271,
調布 (Chofu),2023-03-30,16:01～17:00,0.0292,0.0254,0.0271,
調布 (Chofu),2023-03-30,15:01～16:00,0.0296,0.0253,0.0273,
調布 (Chofu),2023-03-30,14:01～15:00,0.0297,0.0252,0.0272,
調布 (Chofu),2023-03-30,13:01～14:00,0.0293,0.0252,0.0272,
調布 (Chofu),2023-03-30,12:01～13:00,0.0290,0.0253,0.0272,
調布 (Chofu),2023-03-30,11:01～12:00,0.0296,0.0254,0.0273,
調布 (Chofu),2023-03-30,10:01～11:00,0.0295,0.0256,0.0273,
調布 (Chofu),2023-03-30,09:01～10:00,0.0293,0.0244,0.0272,
調布 (Chofu),2023-03-30,08:01～09:00,0.0294,0.0245,0.0274,
調布 (Chofu),2023-03-30,07:01～08:00,0.0290,0.0254,0.0273,
調布 (Chofu),2023-03-30,06:01～07:00,0.0294,0.0259,0.0272,
調布 (Chofu),2023-03-30,05:01～06:00,0.0288,0.0248,0.0269,
調布 (Chofu),2023-03-30,04:01～05:00,0.0292,0.0258,0.0271,
調布 (Chofu),2023-03-30,03:01～04:00,0.0285,0.0249,0.0270,
調布 (Chofu),2023-03-30,02:01～03:00,0.0298,0.0242,0.0269,
調布 (Chofu),2023-03-30,01:01～02:00,0.0289,0.0249,0.0271,
調布 (Chofu),2023-03-30,00:01～01:00,0.0290,0.0248,0.0274,
調布 (Chofu),2023-03-29,23:01～24:00,0.0310,0.0247,0.0275,
調布 (Chofu),2023-03-29,22:01～23:00,0.0310,0.0254,0.0283,
調布 (Chofu),2023-03-29,21:01～22:00,0.0374,0.0281,0.0322,
調布 (Chofu),2023-03-29,20:01～21:00,0.0469,0.0350,0.0420,
調布 (Chofu),2023-03-29,19:01～20:00,0.0464,0.0361,0.0405,
調布 (Chofu),2023-03-29,18:01～19:00,0.0435,0.0326,0.0375,
調布 (Chofu),2023-03-29,17:01～18:00,0.0503,0.0385,0.0452,
調布 (Chofu),2023-03-29,16:01～17:00,0.0388,0.0261,0.0323,
調布 (Chofu),2023-03-29,15:01～16:00,0.0287,0.0250,0.0272,
調布 (Chofu),2023-03-29,14:01～15:00,0.0297,0.0252,0.0273,
調布 (Chofu),2023-03-29,13:01～14:00,0.0297,0.0255,0.0274,
調布 (Chofu),2023-03-29,12:01～13:00,0.0295,0.0254,0.0273,
調布 (Chofu),2023-03-29,11:01～12:00,0.0303,0.0258,0.0277,
調布 (Chofu),2023-03-29,10:01～11:00,0.0302,0.0251,0.0277,
調布 (Chofu),2023-03-29,09:01～10:00,0.0297,0.0250,0.0277,
調布 (Chofu),2023-03-29,08:01～09:00,0.0295,0.0255,0.0278,
調布 (Chofu),2023-03-29,07:01～08:00,0.0308,0.0254,0.0278,
調布 (Chofu),2023-03-29,06:01～07:00,0.0300,0.0254,0.0279,
調布 (Chofu),2023-03-29,05:01～06:00,0.0290,0.0259,0.0276,
調布 (Chofu),2023-03-29,04:01～05:00,0.0293,0.0251,0.0274,
調布 (Chofu),2023-03-29,03:01～04:00,0.0306,0.0252,0.0274,
調布 (Chofu),2023-03-29,02:01～03:00,0.0288,0.0249,0.0273,
調布 (Chofu),2023-03-29,01:01～02:00,0.0294,0.0251,0.0273,
調布 (Chofu),2023-03-29,00:01～01:00,0.0292,0.0237,0.0271,
調布 (Chofu),2023-03-28,23:01～24:00,0.0297,0.0253,0.0271,
調布 (Chofu),2023-03-28,22:01～23:00,0.0291,0.0259,0.0273,
調布 (Chofu),2023-03-28,21:01～22:00,0.0290,0.0245,0.0273,
調布 (Chofu),2023-03-28,20:01～21:00,0.0294,0.0252,0.0273,
調布 (Chofu),2023-03-28,19:01～20:00,0.0294,0.0253,0.0273,
調布 (Chofu),2023-03-28,18:01～19:00,0.0293,0.0251,0.0272,
調布 (Chofu),2023-03-28,17:01～18:00,0.0297,0.0243,0.0272,
調布 (Chofu),2023-03-28,16:01～17:00,0.0302,0.0252,0.0275,
調布 (Chofu),2023-03-28,15:01～16:00,0.0295,0.0253,0.0276,
調布 (Chofu),2023-03-28,14:01～15:00,0.0304,0.0262,0.0281,
調布 (Chofu),2023-03-28,13:01～14:00,0.0343,0.0273,0.0297,
調布 (Chofu),2023-03-28,12:01～13:00,0.0349,0.0287,0.0317,
調布 (Chofu),2023-03-28,11:01～12:00,0.0357,0.0298,0.0330,
調布 (Chofu),2023-03-28,10:01～11:00,0.0396,0.0315,0.0360,
調布 (Chofu),2023-03-28,09:01～10:00,0.0410,0.0358,0.0381,
調布 (Chofu),2023-03-28,08:01～09:00,0.0383,0.0301,0.0343,
調布 (Chofu),2023-03-28,07:01～08:00,0.0356,0.0304,0.0331,
調布 (Chofu),2023-03-28,06:01～07:00,0.0378,0.0325,0.0345,
調布 (Chofu),2023-03-28,05:01～06:00,0.0381,0.0297,0.0329,
調布 (Chofu),2023-03-28,04:01～05:00,0.0323,0.0269,0.0294,
調布 (Chofu),2023-03-28,03:01～04:00,0.0315,0.0259,0.0289,
調布 (Chofu),2023-03-28,02:01～03:00,0.0300,0.0267,0.0281,
調布 (Chofu),2023-03-28,01:01～02:00,0.0315,0.0271,0.0290,
調布 (Chofu),2023-03-28,00:01～01:00,0.0318,0.0265,0.0289,
調布 (Chofu),2023-03-27,23:01～24:00,0.0300,0.0259,0.0278,
調布 (Chofu),2023-03-27,22:01～23:00,0.0296,0.0254,0.0276,
調布 (Chofu),2023-03-27,21:01～22:00,0.0301,0.0258,0.0274,
調布 (Chofu),2023-03-27,20:01～21:00,0.0291,0.0255,0.0272,
調布 (Chofu),2023-03-27,19:01～20:00,0.0311,0.0247,0.0274,
調布 (Chofu),2023-03-27,18:01～19:00,0.0294,0.0256,0.0274,
調布 (Chofu),2023-03-27,17:01～18:00,0.0294,0.0249,0.0274,
調布 (Chofu),2023-03-27,16:01～17:00,0.0298,0.0251,0.0273,
調布 (Chofu),2023-03-27,15:01～16:00,0.0292,0.0249,0.0274,
調布 (Chofu),2023-03-27,14:01～15:00,0.0289,0.0249,0.0274,
調布 (Chofu),2023-03-27,13:01～14:00,0.0293,0.0255,0.0274,
調布 (Chofu),2023-03-27,12:01～13:00,0.0296,0.0252,0.0276,
調布 (Chofu),2023-03-27,11:01～12:00,0.0297,0.0249,0.0276,
調布 (Chofu),2023-03-27,10:01～11:00,0.0301,0.0253,0.0276,
調布 (Chofu),2023-03-27,09:01～10:00,0.0294,0.0255,0.0276,
調布 (Chofu),2023-03-27,08:01～09:00,0.0306,0.0256,0.0275,
調布 (Chofu),2023-03-27,07:01～08:00,0.0290,0.0249,0.0271,
調布 (Chofu),2023-03-27,06:01～07:00,0.0299,0.0257,0.0271,
調布 (Chofu),2023-03-27,05:01～06:00,0.0287,0.0249,0.0271,
調布 (Chofu),2023-03-27,04:01～05:00,0.0299,0.0254,0.0271,
調布 (Chofu),2023-03-27,03:01～04:00,0.0293,0.0241,0.0272,
調布 (Chofu),2023-03-27,02:01～03:00,0.0297,0.0256,0.0278,
調布 (Chofu),2023-03-27,01:01～02:00,0.0307,0.0259,0.0278,
調布 (Chofu),2023-03-27,00:01～01:00,0.0296,0.0256,0.0277,
